This is the latest recevied weather packets stored in our database for station/object AJ7DN. If no packets are shown the sender has not sent any weather packets the latest 10 day(s).
| Time | Temp. | Humidity | Pressure | Rain* | Wind** | Luminosity | Snow |
|---|---|---|---|---|---|---|---|
| 1777946441 | 22.22° C | 65% | 1014.7 hPa | 0 mm | - | 21 W/m² | - |
| 1777946138 | 22.22° C | 65% | 1014.5 hPa | 0 mm | - | 22 W/m² | - |
| 1777945835 | 22.22° C | 65% | 1014.6 hPa | 0 mm | - | 24 W/m² | - |
| 1777945532 | 22.22° C | 65% | 1014.4 hPa | 0 mm | - | 28 W/m² | - |
| 1777945229 | 22.22° C | 64% | 1014.4 hPa | 0 mm | - | 34 W/m² | - |
| 1777944926 | 22.78° C | 63% | 1014.7 hPa | 0 mm | - | 32 W/m² | - |
| 1777944624 | 22.78° C | 63% | 1014.7 hPa | 0 mm | - | 35 W/m² | - |
| 1777944321 | 22.78° C | 63% | 1014.6 hPa | 0 mm | - | 36 W/m² | - |
| 1777944018 | 22.78° C | 62% | 1014.8 hPa | 0 mm | - | 37 W/m² | - |
| 1777943714 | 22.78° C | 62% | 1014.8 hPa | 0 mm | - | 37 W/m² | - |
| 1777943411 | 22.78° C | 63% | 1014.9 hPa | 0 mm | - | 39 W/m² | - |
| 1777943106 | 23.33° C | 62% | 1015 hPa | 0 mm | - | 39 W/m² | - |
| 1777942803 | 23.89° C | 61% | 1014.8 hPa | 0 mm | - | 45 W/m² | - |
| 1777942499 | 23.89° C | 60% | 1015 hPa | 0 mm | - | 138 W/m² | - |
| 1777942198 | 23.89° C | 60% | 1015 hPa | 0 mm | - | 235 W/m² | - |
| 1777941894 | 23.89° C | 60% | 1015.1 hPa | 0 mm | - | 230 W/m² | - |
| 1777941591 | 23.89° C | 60% | 1015 hPa | 0 mm | - | 260 W/m² | - |
| 1777941288 | 23.89° C | 59% | 1015.1 hPa | 0 mm | - | 226 W/m² | - |
| 1777940984 | 23.89° C | 58% | 1015.2 hPa | 0 mm | - | 230 W/m² | - |
| 1777940680 | 23.89° C | 59% | 1015.2 hPa | 0 mm | - | 278 W/m² | - |
| 1777940379 | 23.89° C | 59% | 1015.1 hPa | 0 mm | - | 303 W/m² | - |
| 1777940076 | 24.44° C | 59% | 1015.1 hPa | 0 mm | - | 280 W/m² | - |
| 1777939773 | 23.89° C | 59% | 1015.1 hPa | 0 mm | - | 299 W/m² | - |
| 1777939471 | 23.89° C | 59% | 1015.1 hPa | 0 mm | - | 331 W/m² | - |
| 1777939167 | 23.89° C | 59% | 1015.2 hPa | 0 mm | - | 338 W/m² | - |
* Rain latest hour (hover to see other rain measurements)
** Current wind speed in m/s (hover to see current wind gust speed)